Time,TemperatureF,DewpointF,PressureIn,WindDirection,WindDirectionDegrees,WindSpeedMPH,WindSpeedGustMPH,Humidity,HourlyPrecipIn,Conditions,Clouds,dailyrainin,SoftwareType,DateUTC
2013-02-16 00:00:00,14.1,8.8,30.11,NNW,336,4.0,4.0,79,0.00,,OVC060,0.00,VWS V14.01,2013-02-16 05:00:00,
2013-02-16 00:05:00,14.0,9.0,30.11,NNW,330,4.0,4.0,80,0.00,,OVC060,0.00,VWS V14.01,2013-02-16 05:05:00,
2013-02-16 00:10:00,13.9,8.9,30.11,NW,308,3.0,3.0,80,0.00,,OVC060,0.00,VWS V14.01,2013-02-16 05:10:00,
2013-02-16 00:15:00,13.9,8.9,30.11,NW,319,1.0,3.0,80,0.00,,OVC060,0.00,VWS V14.01,2013-02-16 05:15:00,
2013-02-16 00:20:00,13.9,8.9,30.11,NNW,327,3.0,3.0,80,0.00,,OVC060,0.00,VWS V14.01,2013-02-16 05:20:00,
2013-02-16 00:23:00,13.9,8.9,30.11,NNW,346,3.0,3.0,80,0.00,,OVC060,0.00,VWS V14.01,2013-02-16 05:23:00,
2013-02-16 00:28:00,13.8,8.8,30.10,NNW,333,3.0,4.0,80,0.00,,OVC060,0.00,VWS V14.01,2013-02-16 05:28:00,
2013-02-16 00:33:00,13.8,8.8,30.10,NNW,335,4.0,4.0,80,0.00,,OVC060,0.00,VWS V14.01,2013-02-16 05:33:00,
2013-02-16 00:38:00,13.7,8.7,30.11,NNW,327,2.0,4.0,80,0.00,,OVC060,0.00,VWS V14.01,2013-02-16 05:38:00,
2013-02-16 00:43:00,13.7,9.0,30.11,NNW,341,4.0,4.0,81,0.00,,OVC060,0.00,VWS V14.01,2013-02-16 05:43:00,
2013-02-16 00:48:00,13.7,9.0,30.11,WNW,298,3.0,6.0,81,0.00,,OVC060,0.00,VWS V14.01,2013-02-16 05:48:00,
2013-02-16 00:53:00,13.6,8.9,30.11,WNW,302,5.0,8.0,81,0.00,,OVC060,0.00,VWS V14.01,2013-02-16 05:53:00,
2013-02-16 00:58:00,13.5,8.8,30.11,NW,315,4.0,9.0,81,0.00,,OVC060,0.00,VWS V14.01,2013-02-16 05:58:00,
2013-02-16 01:03:00,13.4,8.9,30.11,NW,320,2.0,3.0,82,0.00,,OVC060,0.00,VWS V14.01,2013-02-16 06:03:00,
2013-02-16 01:08:00,13.2,8.8,30.11,NW,325,3.0,3.0,82,0.00,,OVC060,0.00,VWS V14.01,2013-02-16 06:08:00,
2013-02-16 01:13:00,13.0,8.6,30.11,NW,313,1.0,2.0,82,0.00,,OVC060,0.00,VWS V14.01,2013-02-16 06:13:00,
2013-02-16 01:18:00,12.9,8.4,30.11,NW,309,2.0,2.0,82,0.00,,OVC060,0.00,VWS V14.01,2013-02-16 06:18:00,
2013-02-16 01:23:00,12.8,8.6,30.11,WNW,298,1.0,1.0,83,0.00,,OVC060,0.00,VWS V14.01,2013-02-16 06:23:00,
2013-02-16 01:28:00,12.6,8.4,30.10,WNW,300,3.0,3.0,83,0.00,,OVC060,0.00,VWS V14.01,2013-02-16 06:28:00,
2013-02-16 01:33:00,12.5,8.6,30.10,NW,313,0.0,1.0,84,0.00,,OVC060,0.00,VWS V14.01,2013-02-16 06:33:00,
2013-02-16 01:38:00,12.3,8.4,30.10,NW,326,1.0,3.0,84,0.00,,OVC060,0.00,VWS V14.01,2013-02-16 06:38:00,
2013-02-16 01:43:00,12.1,8.2,30.10,NW,323,0.0,0.0,84,0.00,,OVC060,0.00,VWS V14.01,2013-02-16 06:43:00,
2013-02-16 01:48:00,11.9,8.0,30.10,NNW,348,3.0,4.0,84,0.00,,OVC060,0.00,VWS V14.01,2013-02-16 06:48:00,
2013-02-16 01:53:00,11.9,8.3,30.10,NNW,330,1.0,1.0,85,0.00,,OVC060,0.00,VWS V14.01,2013-02-16 06:53:00,
2013-02-16 01:58:00,11.4,7.8,30.10,NNW,331,1.0,1.0,85,0.00,,OVC060,0.00,VWS V14.01,2013-02-16 06:58:00,
2013-02-16 02:03:00,11.1,7.7,30.10,NNW,330,0.0,1.0,86,0.00,,OVC060,0.00,VWS V14.01,2013-02-16 07:03:00,
2013-02-16 02:08:00,10.9,7.5,30.10,NNW,330,1.0,1.0,86,0.00,,OVC060,0.00,VWS V14.01,2013-02-16 07:08:00,
2013-02-16 02:13:00,10.5,6.9,30.10,NNW,331,1.0,1.0,85,0.00,,OVC060,0.00,VWS V14.01,2013-02-16 07:13:00,
2013-02-16 02:18:00,9.5,5.9,30.09,NE,46,2.0,2.0,85,0.00,,OVC060,0.00,VWS V14.01,2013-02-16 07:18:00,
2013-02-16 02:23:00,9.0,5.9,30.10,NE,55,0.0,1.0,87,0.00,,OVC060,0.00,VWS V14.01,2013-02-16 07:23:00,
2013-02-16 02:28:00,9.2,6.4,30.09,NE,55,1.0,1.0,88,0.00,,OVC060,0.00,VWS V14.01,2013-02-16 07:28:00,
2013-02-16 02:33:00,9.8,6.7,30.10,NE,55,0.0,1.0,87,0.00,,OVC060,0.00,VWS V14.01,2013-02-16 07:33:00,
2013-02-16 02:38:00,10.2,7.4,30.09,NE,56,0.0,1.0,88,0.00,,OVC060,0.00,VWS V14.01,2013-02-16 07:38:00,
2013-02-16 02:43:00,10.6,7.5,30.09,ENE,58,1.0,1.0,87,0.00,,OVC060,0.00,VWS V14.01,2013-02-16 07:43:00,
2013-02-16 02:48:00,9.0,5.4,30.09,ENE,58,2.0,2.0,85,0.00,,OVC060,0.00,VWS V14.01,2013-02-16 07:48:00,
2013-02-16 02:53:00,8.7,5.6,30.09,ENE,58,0.0,0.0,87,0.00,,OVC060,0.00,VWS V14.01,2013-02-16 07:53:00,
2013-02-16 02:58:00,7.6,4.6,30.09,ENE,58,2.0,2.0,87,0.00,,OVC060,0.00,VWS V14.01,2013-02-16 07:58:00,
2013-02-16 03:03:00,7.4,4.8,30.09,ENE,58,0.0,1.0,89,0.00,,OVC060,0.00,VWS V14.01,2013-02-16 08:03:00,
2013-02-16 03:08:00,6.9,4.1,30.09,ENE,58,1.0,2.0,88,0.00,,OVC065,0.00,VWS V14.01,2013-02-16 08:08:00,
2013-02-16 03:13:00,5.9,2.9,30.09,East,81,2.0,3.0,87,0.00,,OVC065,0.00,VWS V14.01,2013-02-16 08:13:00,
2013-02-16 03:18:00,5.7,3.2,30.09,East,82,2.0,2.0,89,0.00,,OVC065,0.00,VWS V14.01,2013-02-16 08:18:00,
2013-02-16 03:23:00,6.1,3.8,30.08,East,84,3.0,3.0,90,0.00,,OVC065,0.00,VWS V14.01,2013-02-16 08:23:00,
2013-02-16 03:28:00,6.4,4.1,30.08,East,88,2.0,2.0,90,0.00,,OVC065,0.00,VWS V14.01,2013-02-16 08:28:00,
2013-02-16 03:33:00,5.5,2.7,30.08,East,101,1.0,2.0,88,0.00,,OVC065,0.00,VWS V14.01,2013-02-16 08:33:00,
2013-02-16 03:38:00,5.4,2.6,30.08,ESE,109,0.0,1.0,88,0.00,,OVC065,0.00,VWS V14.01,2013-02-16 08:38:00,
2013-02-16 03:43:00,5.3,2.8,30.08,ESE,109,0.0,1.0,89,0.00,,OVC065,0.00,VWS V14.01,2013-02-16 08:43:00,
2013-02-16 03:48:00,4.2,1.2,30.07,ESE,109,1.0,1.0,87,0.00,,OVC065,0.00,VWS V14.01,2013-02-16 08:48:00,
2013-02-16 03:53:00,4.2,1.7,30.08,ESE,109,0.0,0.0,89,0.00,,OVC065,0.00,VWS V14.01,2013-02-16 08:53:00,
2013-02-16 03:58:00,3.7,0.7,30.07,ESE,109,1.0,2.0,87,0.00,,OVC065,0.00,VWS V14.01,2013-02-16 08:58:00,
2013-02-16 04:03:00,3.7,1.2,30.07,ESE,111,1.0,2.0,89,0.00,,OVC065,0.00,VWS V14.01,2013-02-16 09:03:00,
2013-02-16 04:08:00,3.2,0.2,30.07,ESE,104,2.0,2.0,87,0.00,,OVC065,0.00,VWS V14.01,2013-02-16 09:08:00,
2013-02-16 04:13:00,2.9,0.2,30.07,ESE,105,2.0,3.0,88,0.00,,OVC065,0.00,VWS V14.01,2013-02-16 09:13:00,
2013-02-16 04:18:00,2.1,-1.1,30.07,East,84,2.0,3.0,86,0.00,,OVC065,0.00,VWS V14.01,2013-02-16 09:18:00,
2013-02-16 04:23:00,1.9,-1.1,30.07,East,86,1.0,2.0,87,0.00,,OVC065,0.00,VWS V14.01,2013-02-16 09:23:00,
2013-02-16 04:28:00,2.6,0.1,30.07,ESE,111,1.0,2.0,89,0.00,,OVC065,0.00,VWS V14.01,2013-02-16 09:28:00,
2013-02-16 04:33:00,2.5,-0.2,30.07,East,101,1.0,2.0,88,0.00,,OVC065,0.00,VWS V14.01,2013-02-16 09:33:00,
2013-02-16 04:39:00,1.8,-1.2,30.07,East,101,0.0,1.0,87,0.00,,OVC065,0.00,VWS V14.01,2013-02-16 09:39:00,
2013-02-16 04:44:00,1.8,-0.9,30.07,East,101,3.0,3.0,88,0.00,,OVC065,0.00,VWS V14.01,2013-02-16 09:44:00,
2013-02-16 04:49:00,1.4,-1.6,30.07,ESE,103,1.0,1.0,87,0.00,,OVC065,0.00,VWS V14.01,2013-02-16 09:49:00,
2013-02-16 04:54:00,1.0,-2.0,30.07,ESE,103,0.0,0.0,87,0.00,,OVC065,0.00,VWS V14.01,2013-02-16 09:54:00,
2013-02-16 04:59:00,0.9,-2.0,30.07,ESE,103,0.0,1.0,87,0.00,,OVC065,0.00,VWS V14.01,2013-02-16 09:59:00,
2013-02-16 05:04:00,0.6,-2.3,30.07,ESE,102,1.0,1.0,87,0.00,,OVC065,0.00,VWS V14.01,2013-02-16 10:04:00,
2013-02-16 05:09:00,0.5,-2.5,30.07,East,100,2.0,2.0,87,0.00,,BKN060,0.00,VWS V14.01,2013-02-16 10:09:00,
2013-02-16 05:14:00,0.7,-2.0,30.07,ESE,108,1.0,1.0,88,0.00,,BKN060,0.00,VWS V14.01,2013-02-16 10:14:00,
2013-02-16 05:19:00,0.9,-1.6,30.07,ESE,108,1.0,1.0,89,0.00,,BKN060,0.00,VWS V14.01,2013-02-16 10:19:00,
2013-02-16 05:24:00,1.1,-1.4,30.08,ESE,108,0.0,0.0,89,0.00,,BKN060,0.00,VWS V14.01,2013-02-16 10:24:00,
2013-02-16 05:29:00,1.3,-1.2,30.07,ESE,108,1.0,1.0,89,0.00,,BKN060,0.00,VWS V14.01,2013-02-16 10:29:00,
2013-02-16 05:34:00,1.4,-1.1,30.07,ESE,108,0.0,1.0,89,0.00,,BKN060,0.00,VWS V14.01,2013-02-16 10:34:00,
2013-02-16 05:39:00,1.7,-0.6,30.07,ESE,109,0.0,1.0,90,0.00,,BKN060,0.00,VWS V14.01,2013-02-16 10:39:00,
2013-02-16 05:44:00,1.8,-0.7,30.07,ESE,109,1.0,1.0,89,0.00,,BKN060,0.00,VWS V14.01,2013-02-16 10:44:00,
2013-02-16 05:49:00,1.8,-0.9,30.07,ESE,109,2.0,2.0,88,0.00,,BKN060,0.00,VWS V14.01,2013-02-16 10:49:00,
2013-02-16 05:54:00,1.9,-0.8,30.07,ESE,109,2.0,2.0,88,0.00,,BKN060,0.00,VWS V14.01,2013-02-16 10:54:00,
2013-02-16 05:59:00,2.1,-0.4,30.07,ESE,109,1.0,1.0,89,0.00,,BKN060,0.00,VWS V14.01,2013-02-16 10:59:00,
2013-02-16 06:04:00,2.3,-0.2,30.07,ESE,109,0.0,1.0,89,0.00,,BKN060,0.00,VWS V14.01,2013-02-16 11:04:00,
2013-02-16 06:09:00,2.4,-0.1,30.07,ESE,109,0.0,0.0,89,0.00,,BKN060,0.00,VWS V14.01,2013-02-16 11:09:00,
2013-02-16 06:14:00,2.6,0.1,30.07,ESE,109,1.0,1.0,89,0.00,,BKN060,0.00,VWS V14.01,2013-02-16 11:14:00,
2013-02-16 06:19:00,2.6,-0.1,30.07,SE,128,2.0,2.0,88,0.00,,OVC060,0.00,VWS V14.01,2013-02-16 11:19:00,
2013-02-16 06:24:00,2.8,0.3,30.07,SE,125,2.0,2.0,89,0.00,,OVC060,0.00,VWS V14.01,2013-02-16 11:24:00,
2013-02-16 06:29:00,3.1,0.6,30.07,ESE,115,2.0,3.0,89,0.00,,OVC060,0.00,VWS V14.01,2013-02-16 11:29:00,
2013-02-16 06:34:00,3.2,0.4,30.07,ESE,122,1.0,3.0,88,0.00,,OVC060,0.00,VWS V14.01,2013-02-16 11:34:00,
2013-02-16 06:39:00,3.2,0.4,30.07,ESE,123,0.0,1.0,88,0.00,,OVC060,0.00,VWS V14.01,2013-02-16 11:39:00,
2013-02-16 06:44:00,3.1,0.1,30.07,SE,124,1.0,1.0,87,0.00,,OVC060,0.00,VWS V14.01,2013-02-16 11:44:00,
2013-02-16 06:49:00,2.9,-0.1,30.07,SE,124,1.0,2.0,87,0.00,,OVC060,0.00,VWS V14.01,2013-02-16 11:49:00,
2013-02-16 06:54:00,2.8,0.1,30.07,ESE,114,2.0,3.0,88,0.00,,OVC060,0.00,VWS V14.01,2013-02-16 11:54:00,
2013-02-16 06:59:00,2.5,-0.5,30.07,ESE,112,2.0,3.0,87,0.00,,OVC060,0.00,VWS V14.01,2013-02-16 11:59:00,
2013-02-16 07:04:00,2.3,-0.9,30.07,ESE,112,1.0,2.0,86,0.00,,OVC060,0.00,VWS V14.01,2013-02-16 12:04:00,
2013-02-16 07:09:00,1.9,-1.6,30.07,ESE,112,1.0,1.0,85,0.00,,,0.00,VWS V14.01,2013-02-16 12:09:00,
2013-02-16 07:14:00,1.5,-2.0,30.07,ESE,112,2.0,3.0,85,0.00,,,0.00,VWS V14.01,2013-02-16 12:14:00,
2013-02-16 07:19:00,0.9,-2.5,30.07,East,98,2.0,3.0,85,0.00,,,0.00,VWS V14.01,2013-02-16 12:19:00,
2013-02-16 07:24:00,0.2,-3.2,30.07,ENE,59,4.0,4.0,85,0.00,,,0.00,VWS V14.01,2013-02-16 12:24:00,
2013-02-16 07:29:00,0.2,-3.0,30.07,ESE,111,3.0,3.0,86,0.00,,,0.00,VWS V14.01,2013-02-16 12:29:00,
2013-02-16 07:34:00,0.3,-2.7,30.08,ESE,109,3.0,3.0,87,0.00,,,0.00,VWS V14.01,2013-02-16 12:34:00,
2013-02-16 07:39:00,0.1,-3.2,30.08,ESE,108,2.0,3.0,86,0.00,,,0.00,VWS V14.01,2013-02-16 12:39:00,
2013-02-16 07:44:00,0.2,-2.7,30.08,ESE,112,1.0,2.0,87,0.00,,,0.00,VWS V14.01,2013-02-16 12:44:00,
2013-02-16 07:49:00,0.7,-1.8,30.08,SE,136,0.0,1.0,89,0.00,,,0.00,VWS V14.01,2013-02-16 12:49:00,
2013-02-16 07:54:00,0.6,-2.3,30.08,SE,135,0.0,1.0,87,0.00,,,0.00,VWS V14.01,2013-02-16 12:54:00,
2013-02-16 07:59:00,-0.1,-3.5,30.08,ESE,112,1.0,1.0,85,0.00,,,0.00,VWS V14.01,2013-02-16 12:59:00,
2013-02-16 08:04:00,-0.3,-3.7,30.09,ESE,107,2.0,2.0,85,0.00,,,0.00,VWS V14.01,2013-02-16 13:04:00,
2013-02-16 08:09:00,-0.1,-2.9,30.09,ESE,103,2.0,2.0,87,0.00,,OVC070,0.00,VWS V14.01,2013-02-16 13:09:00,
2013-02-16 08:14:00,0.6,-2.3,30.09,ESE,103,0.0,1.0,87,0.00,,OVC070,0.00,VWS V14.01,2013-02-16 13:14:00,
2013-02-16 08:19:00,0.8,-2.2,30.09,ESE,107,2.0,2.0,87,0.00,,OVC070,0.00,VWS V14.01,2013-02-16 13:19:00,
2013-02-16 08:24:00,1.0,-2.0,30.09,ESE,107,1.0,2.0,87,0.00,,OVC034,0.00,VWS V14.01,2013-02-16 13:24:00,
2013-02-16 08:29:00,1.2,-1.8,30.09,ESE,107,1.0,1.0,87,0.00,,OVC034,0.00,VWS V14.01,2013-02-16 13:29:00,
2013-02-16 08:35:00,1.5,-1.5,30.09,ESE,107,1.0,1.0,87,0.00,,OVC034,0.00,VWS V14.01,2013-02-16 13:35:00,
2013-02-16 08:40:00,1.9,-1.1,30.09,ESE,107,1.0,1.0,87,0.00,,OVC033,0.00,VWS V14.01,2013-02-16 13:40:00,
2013-02-16 08:45:00,2.1,-0.9,30.10,ESE,107,0.0,0.0,87,0.00,,OVC033,0.00,VWS V14.01,2013-02-16 13:45:00,
2013-02-16 08:50:00,2.5,-0.2,30.10,ESE,107,0.0,0.0,88,0.00,,OVC033,0.00,VWS V14.01,2013-02-16 13:50:00,
2013-02-16 08:55:00,2.3,-0.7,30.10,ESE,107,0.0,0.0,87,0.00,,OVC033,0.00,VWS V14.01,2013-02-16 13:55:00,
2013-02-16 09:00:00,2.7,0.0,30.10,ESE,107,1.0,1.0,88,0.00,,OVC033,0.00,VWS V14.01,2013-02-16 14:00:00,
2013-02-16 09:05:00,3.3,0.6,30.10,ESE,107,0.0,0.0,88,0.00,,OVC033,0.00,VWS V14.01,2013-02-16 14:05:00,
2013-02-16 09:10:00,3.9,1.4,30.10,ESE,107,1.0,1.0,89,0.00,,OVC033,0.00,VWS V14.01,2013-02-16 14:10:00,
2013-02-16 09:15:00,4.4,1.6,30.10,ESE,107,1.0,1.0,88,0.00,,OVC033,0.00,VWS V14.01,2013-02-16 14:15:00,
2013-02-16 09:20:00,5.3,2.8,30.10,ESE,107,1.0,1.0,89,0.00,,OVC033,0.00,VWS V14.01,2013-02-16 14:20:00,
2013-02-16 09:25:00,6.1,3.6,30.10,ESE,107,0.0,1.0,89,0.00,,,0.00,VWS V14.01,2013-02-16 14:25:00,
2013-02-16 09:30:00,6.4,3.6,30.10,ESE,107,1.0,1.0,88,0.00,,,0.00,VWS V14.01,2013-02-16 14:30:00,
2013-02-16 09:35:00,6.9,4.3,30.10,ESE,107,0.0,1.0,89,0.00,,,0.00,VWS V14.01,2013-02-16 14:35:00,
2013-02-16 09:40:00,7.3,4.5,30.10,ESE,107,2.0,2.0,88,0.00,,,0.00,VWS V14.01,2013-02-16 14:40:00,
2013-02-16 09:45:00,9.2,6.9,30.10,NE,44,2.0,3.0,90,0.00,,,0.00,VWS V14.01,2013-02-16 14:45:00,
2013-02-16 09:50:00,10.4,7.6,30.11,NNE,27,4.0,5.0,88,0.00,,,0.00,VWS V14.01,2013-02-16 14:50:00,
2013-02-16 09:55:00,10.6,7.8,30.10,ENE,63,4.0,4.0,88,0.00,,,0.00,VWS V14.01,2013-02-16 14:55:00,
2013-02-16 10:00:00,10.8,7.9,30.10,ENE,67,4.0,7.0,88,0.00,,,0.00,VWS V14.01,2013-02-16 15:00:00,
2013-02-16 10:05:00,10.8,7.9,30.10,ENE,65,8.0,9.0,88,0.00,,,0.00,VWS V14.01,2013-02-16 15:05:00,
2013-02-16 10:10:00,11.2,8.1,30.10,ENE,76,4.0,8.0,87,0.00,,OVC026,0.00,VWS V14.01,2013-02-16 15:10:00,
2013-02-16 10:15:00,11.4,8.3,30.10,East,81,7.0,9.0,87,0.00,,OVC026,0.00,VWS V14.01,2013-02-16 15:15:00,
2013-02-16 10:20:00,11.4,8.3,30.10,ENE,61,9.0,10.0,87,0.00,,OVC026,0.00,VWS V14.01,2013-02-16 15:20:00,
2013-02-16 10:25:00,11.4,8.0,30.10,NE,44,5.0,9.0,86,0.00,,OVC026,0.00,VWS V14.01,2013-02-16 15:25:00,
2013-02-16 10:30:00,11.8,8.4,30.10,ENE,72,5.0,8.0,86,0.00,,OVC026,0.00,VWS V14.01,2013-02-16 15:30:00,
2013-02-16 10:35:00,12.0,8.4,30.10,ENE,76,3.0,3.0,85,0.00,,OVC026,0.00,VWS V14.01,2013-02-16 15:35:00,
2013-02-16 10:40:00,12.2,8.6,30.10,NE,51,5.0,9.0,85,0.00,,OVC026,0.00,VWS V14.01,2013-02-16 15:40:00,
2013-02-16 10:45:00,12.3,8.4,30.10,NE,47,4.0,7.0,84,0.00,,OVC026,0.00,VWS V14.01,2013-02-16 15:45:00,
2013-02-16 10:50:00,12.6,8.7,30.10,ENE,77,8.0,8.0,84,0.00,,OVC026,0.00,VWS V14.01,2013-02-16 15:50:00,
2013-02-16 10:55:00,12.5,8.6,30.10,East,90,7.0,10.0,84,0.00,,OVC026,0.00,VWS V14.01,2013-02-16 15:55:00,
2013-02-16 11:00:00,12.2,8.0,30.10,ENE,69,4.0,13.0,83,0.00,,OVC026,0.00,VWS V14.01,2013-02-16 16:00:00,
2013-02-16 11:05:00,12.2,8.0,30.10,ENE,75,5.0,7.0,83,0.00,,OVC026,0.00,VWS V14.01,2013-02-16 16:05:00,
2013-02-16 11:10:00,11.9,7.7,30.10,NE,55,6.0,8.0,83,0.00,,OVC055,0.00,VWS V14.01,2013-02-16 16:10:00,
2013-02-16 11:15:00,12.2,8.0,30.10,East,86,3.0,7.0,83,0.00,,OVC055,0.00,VWS V14.01,2013-02-16 16:15:00,
2013-02-16 11:20:00,12.4,8.2,30.11,ENE,67,9.0,9.0,83,0.00,,OVC055,0.00,VWS V14.01,2013-02-16 16:20:00,
2013-02-16 11:25:00,12.8,8.4,30.10,ESE,109,8.0,11.0,82,0.00,,OVC055,0.00,VWS V14.01,2013-02-16 16:25:00,
2013-02-16 11:30:00,12.9,8.4,30.10,East,96,6.0,7.0,82,0.00,,OVC055,0.00,VWS V14.01,2013-02-16 16:30:00,
2013-02-16 11:35:00,13.2,8.8,30.10,East,80,10.0,10.0,82,0.00,,OVC055,0.00,VWS V14.01,2013-02-16 16:35:00,
2013-02-16 11:40:00,13.5,8.8,30.11,ENE,76,7.0,9.0,81,0.00,,OVC055,0.00,VWS V14.01,2013-02-16 16:40:00,
2013-02-16 11:45:00,13.6,8.9,30.10,ESE,102,7.0,9.0,81,0.00,,OVC055,0.00,VWS V14.01,2013-02-16 16:45:00,
2013-02-16 11:50:00,13.9,9.2,30.11,East,95,11.0,11.0,81,0.00,,OVC055,0.00,VWS V14.01,2013-02-16 16:50:00,
2013-02-16 11:55:00,14.1,9.1,30.11,ENE,72,4.0,8.0,80,0.00,,OVC055,0.00,VWS V14.01,2013-02-16 16:55:00,
2013-02-16 12:00:00,14.5,9.5,30.10,East,92,9.0,11.0,80,0.00,,OVC055,0.00,VWS V14.01,2013-02-16 17:00:00,
2013-02-16 12:05:00,15.0,10.0,30.10,East,84,5.0,6.0,80,0.00,,OVC055,0.00,VWS V14.01,2013-02-16 17:05:00,
2013-02-16 12:11:00,14.7,9.1,30.10,East,88,7.0,8.0,78,0.00,,,0.00,VWS V14.01,2013-02-16 17:11:00,
2013-02-16 12:16:00,14.6,9.0,30.10,ENE,61,9.0,11.0,78,0.00,,,0.00,VWS V14.01,2013-02-16 17:16:00,
2013-02-16 12:21:00,14.6,9.3,30.10,ENE,66,7.0,9.0,79,0.00,,,0.00,VWS V14.01,2013-02-16 17:21:00,
2013-02-16 12:26:00,14.5,9.2,30.10,ESE,111,10.0,10.0,79,0.00,,,0.00,VWS V14.01,2013-02-16 17:26:00,
2013-02-16 12:31:00,14.4,9.6,30.10,NNE,33,6.0,7.0,81,0.00,,,0.00,VWS V14.01,2013-02-16 17:31:00,
2013-02-16 12:36:00,14.3,9.3,30.10,East,84,9.0,9.0,80,0.00,,,0.00,VWS V14.01,2013-02-16 17:36:00,
2013-02-16 12:41:00,14.1,9.4,30.10,ENE,68,10.0,12.0,81,0.00,,,0.00,VWS V14.01,2013-02-16 17:41:00,
2013-02-16 12:46:00,14.1,9.6,30.10,NE,43,5.0,10.0,82,0.00,,,0.00,VWS V14.01,2013-02-16 17:46:00,
2013-02-16 12:51:00,14.0,9.3,30.10,NE,50,9.0,9.0,81,0.00,,,0.00,VWS V14.01,2013-02-16 17:51:00,
2013-02-16 12:56:00,14.0,8.7,30.10,ENE,73,5.0,10.0,79,0.00,,,0.00,VWS V14.01,2013-02-16 17:56:00,
2013-02-16 13:01:00,14.0,8.7,30.10,ENE,59,7.0,9.0,79,0.00,,,0.00,VWS V14.01,2013-02-16 18:01:00,
2013-02-16 13:06:00,14.0,8.4,30.10,NE,39,3.0,8.0,78,0.00,,,0.00,VWS V14.01,2013-02-16 18:06:00,
2013-02-16 13:11:00,14.0,8.1,30.10,NE,51,7.0,10.0,77,0.00,,,0.00,VWS V14.01,2013-02-16 18:11:00,
2013-02-16 13:16:00,14.2,8.3,30.10,East,82,8.0,9.0,77,0.00,,,0.00,VWS V14.01,2013-02-16 18:16:00,
2013-02-16 13:21:00,14.1,7.9,30.10,NE,41,6.0,10.0,76,0.00,,,0.00,VWS V14.01,2013-02-16 18:21:00,
2013-02-16 13:26:00,14.1,7.7,30.10,ENE,60,3.0,5.0,75,0.00,,,0.00,VWS V14.01,2013-02-16 18:26:00,
2013-02-16 13:31:00,14.1,7.7,30.10,ENE,67,4.0,6.0,75,0.00,,,0.00,VWS V14.01,2013-02-16 18:31:00,
2013-02-16 13:36:00,14.3,7.8,30.10,East,94,2.0,6.0,75,0.00,,,0.00,VWS V14.01,2013-02-16 18:36:00,
2013-02-16 13:41:00,14.7,7.9,30.10,East,90,5.0,7.0,74,0.00,,,0.00,VWS V14.01,2013-02-16 18:41:00,
2013-02-16 13:46:00,15.0,8.2,30.10,NNE,23,6.0,6.0,74,0.00,,,0.00,VWS V14.01,2013-02-16 18:46:00,
2013-02-16 13:51:00,14.9,7.8,30.10,NE,36,6.0,9.0,73,0.00,,,0.00,VWS V14.01,2013-02-16 18:51:00,
2013-02-16 13:56:00,14.3,7.6,30.10,ENE,61,5.0,6.0,74,0.00,,,0.00,VWS V14.01,2013-02-16 18:56:00,
2013-02-16 14:01:00,14.3,7.6,30.10,ENE,57,4.0,5.0,74,0.00,,,0.00,VWS V14.01,2013-02-16 19:01:00,
2013-02-16 14:06:00,16.2,9.1,30.10,NNE,26,7.0,7.0,73,0.00,,OVC020,0.00,VWS V14.01,2013-02-16 19:06:00,
2013-02-16 14:11:00,15.9,7.9,30.10,NNE,28,5.0,6.0,70,0.00,,OVC020,0.00,VWS V14.01,2013-02-16 19:11:00,
2013-02-16 14:16:00,14.8,6.5,30.10,NE,49,5.0,7.0,69,0.00,,OVC020,0.00,VWS V14.01,2013-02-16 19:16:00,
2013-02-16 14:21:00,15.4,7.1,30.10,North,350,4.0,5.0,69,0.00,,OVC020,0.00,VWS V14.01,2013-02-16 19:21:00,
2013-02-16 14:26:00,16.4,8.3,30.10,NNE,16,1.0,3.0,70,0.00,,OVC020,0.00,VWS V14.01,2013-02-16 19:26:00,
2013-02-16 14:31:00,15.8,6.5,30.10,ENE,57,4.0,6.0,66,0.00,,OVC020,0.00,VWS V14.01,2013-02-16 19:31:00,
2013-02-16 14:36:00,16.5,8.1,30.10,NE,44,2.0,3.0,69,0.00,,OVC020,0.00,VWS V14.01,2013-02-16 19:36:00,
2013-02-16 14:41:00,16.7,7.7,30.10,NNE,19,6.0,6.0,67,0.00,,OVC020,0.00,VWS V14.01,2013-02-16 19:41:00,
2013-02-16 14:46:00,16.5,7.8,30.10,NNE,28,4.0,5.0,68,0.00,,OVC020,0.00,VWS V14.01,2013-02-16 19:46:00,
2013-02-16 14:51:00,16.7,7.3,30.10,NE,48,6.0,6.0,66,0.00,,OVC020,0.00,VWS V14.01,2013-02-16 19:51:00,
2013-02-16 14:56:00,15.7,6.7,30.10,NE,36,7.0,7.0,67,0.00,,OVC020,0.00,VWS V14.01,2013-02-16 19:56:00,
2013-02-16 15:01:00,15.5,6.8,30.10,NNE,15,6.0,7.0,68,0.00,,OVC020,0.00,VWS V14.01,2013-02-16 20:01:00,
2013-02-16 15:06:00,15.5,6.5,30.10,NNW,343,7.0,7.0,67,0.00,,OVC020,0.00,VWS V14.01,2013-02-16 20:06:00,
2013-02-16 15:11:00,15.4,6.1,30.10,NE,38,5.0,8.0,66,0.00,,BKN024,0.00,VWS V14.01,2013-02-16 20:11:00,
2013-02-16 15:16:00,15.9,6.6,30.10,NNE,26,5.0,5.0,66,0.00,,BKN024,0.00,VWS V14.01,2013-02-16 20:16:00,
2013-02-16 15:21:00,15.5,5.5,30.10,ENE,71,3.0,7.0,64,0.00,,BKN024,0.00,VWS V14.01,2013-02-16 20:21:00,
2013-02-16 15:26:00,14.9,5.9,30.10,NE,48,3.0,5.0,67,0.00,,BKN024,0.00,VWS V14.01,2013-02-16 20:26:00,
2013-02-16 15:31:00,15.3,6.0,30.10,NNE,27,5.0,5.0,66,0.00,,BKN024,0.00,VWS V14.01,2013-02-16 20:31:00,
2013-02-16 15:36:00,16.0,7.0,30.10,NNW,348,8.0,10.0,67,0.00,,BKN024,0.00,VWS V14.01,2013-02-16 20:36:00,
2013-02-16 15:41:00,16.0,6.7,30.11,NNE,23,5.0,5.0,66,0.00,,SCT026,0.00,VWS V14.01,2013-02-16 20:41:00,
2013-02-16 15:46:00,16.5,7.1,30.11,North,350,6.0,8.0,66,0.00,,SCT026,0.00,VWS V14.01,2013-02-16 20:46:00,
2013-02-16 15:51:00,16.6,6.9,30.11,NE,34,5.0,5.0,65,0.00,,SCT026,0.00,VWS V14.01,2013-02-16 20:51:00,
2013-02-16 15:56:00,16.5,6.8,30.11,NE,36,4.0,4.0,65,0.00,,SCT026,0.00,VWS V14.01,2013-02-16 20:56:00,
2013-02-16 16:01:00,16.6,6.6,30.11,NNW,342,7.0,8.0,64,0.00,,SCT026,0.00,VWS V14.01,2013-02-16 21:01:00,
2013-02-16 16:07:00,16.5,6.5,30.11,NNW,340,10.0,11.0,64,0.00,,SCT026,0.00,VWS V14.01,2013-02-16 21:07:00,
2013-02-16 16:12:00,16.4,6.4,30.11,NNE,23,5.0,10.0,64,0.00,,SCT030,0.00,VWS V14.01,2013-02-16 21:12:00,
2013-02-16 16:17:00,16.3,6.3,30.11,North,7,8.0,10.0,64,0.00,,SCT030,0.00,VWS V14.01,2013-02-16 21:17:00,
2013-02-16 16:22:00,15.8,5.8,30.11,NNE,21,8.0,9.0,64,0.00,,SCT030,0.00,VWS V14.01,2013-02-16 21:22:00,
2013-02-16 16:27:00,15.8,6.1,30.12,NNW,347,4.0,5.0,65,0.00,,SCT030,0.00,VWS V14.01,2013-02-16 21:27:00,
2013-02-16 16:32:00,15.7,6.0,30.12,North,353,6.0,8.0,65,0.00,,SCT030,0.00,VWS V14.01,2013-02-16 21:32:00,
2013-02-16 16:37:00,15.7,6.0,30.12,NNE,17,7.0,8.0,65,0.00,,SCT030,0.00,VWS V14.01,2013-02-16 21:37:00,
2013-02-16 16:42:00,15.5,6.2,30.12,NNW,333,6.0,6.0,66,0.00,,SCT030,0.00,VWS V14.01,2013-02-16 21:42:00,
2013-02-16 16:47:00,15.3,6.0,30.12,North,7,6.0,9.0,66,0.00,,SCT030,0.00,VWS V14.01,2013-02-16 21:47:00,
2013-02-16 16:52:00,15.2,6.2,30.12,North,357,5.0,8.0,67,0.00,,SCT030,0.00,VWS V14.01,2013-02-16 21:52:00,
2013-02-16 16:57:00,15.0,5.7,30.13,NW,318,7.0,9.0,66,0.00,,SCT030,0.00,VWS V14.01,2013-02-16 21:57:00,
2013-02-16 17:02:00,14.9,6.3,30.13,North,351,5.0,11.0,68,0.00,,SCT030,0.00,VWS V14.01,2013-02-16 22:02:00,
2013-02-16 17:07:00,14.9,5.9,30.13,North,7,5.0,8.0,67,0.00,,SCT030,0.00,VWS V14.01,2013-02-16 22:07:00,
2013-02-16 17:12:00,14.9,6.3,30.13,NW,320,6.0,6.0,68,0.00,,SCT030,0.00,VWS V14.01,2013-02-16 22:12:00,
2013-02-16 17:17:00,14.8,6.2,30.13,NNW,339,8.0,8.0,68,0.00,,SCT030,0.00,VWS V14.01,2013-02-16 22:17:00,
2013-02-16 17:22:00,14.4,5.8,30.14,NNW,342,6.0,6.0,68,0.00,,SCT030,0.00,VWS V14.01,2013-02-16 22:22:00,
2013-02-16 17:27:00,14.2,5.6,30.14,NW,319,6.0,8.0,68,0.00,,SCT032,0.00,VWS V14.01,2013-02-16 22:27:00,
2013-02-16 17:32:00,14.0,5.4,30.14,NNW,344,4.0,7.0,68,0.00,,SCT032,0.00,VWS V14.01,2013-02-16 22:32:00,
2013-02-16 17:37:00,13.6,5.3,30.14,NNW,348,4.0,6.0,69,0.00,,SCT032,0.00,VWS V14.01,2013-02-16 22:37:00,
2013-02-16 17:42:00,13.2,5.3,30.14,North,357,5.0,6.0,70,0.00,,SCT032,0.00,VWS V14.01,2013-02-16 22:42:00,
2013-02-16 17:47:00,13.0,5.1,30.14,NNE,12,3.0,4.0,70,0.00,,SCT032,0.00,VWS V14.01,2013-02-16 22:47:00,
2013-02-16 17:52:00,12.8,4.9,30.14,North,357,3.0,6.0,70,0.00,,SCT032,0.00,VWS V14.01,2013-02-16 22:52:00,
2013-02-16 17:57:00,12.6,4.4,30.14,NNW,341,6.0,6.0,69,0.00,,SCT032,0.00,VWS V14.01,2013-02-16 22:57:00,
2013-02-16 18:02:00,12.5,4.6,30.15,North,357,3.0,7.0,70,0.00,,SCT032,0.00,VWS V14.01,2013-02-16 23:02:00,
2013-02-16 18:07:00,12.2,4.3,30.15,NNE,13,5.0,5.0,70,0.00,,SCT032,0.00,VWS V14.01,2013-02-16 23:07:00,
2013-02-16 18:12:00,11.9,4.0,30.15,NNE,17,3.0,3.0,70,0.00,,CLR,0.00,VWS V14.01,2013-02-16 23:12:00,
2013-02-16 18:17:00,11.6,4.0,30.15,North,7,1.0,2.0,71,0.00,,CLR,0.00,VWS V14.01,2013-02-16 23:17:00,
2013-02-16 18:22:00,11.4,4.1,30.15,North,2,2.0,2.0,72,0.00,,CLR,0.00,VWS V14.01,2013-02-16 23:22:00,
2013-02-16 18:27:00,11.2,4.0,30.15,North,357,1.0,2.0,72,0.00,,CLR,0.00,VWS V14.01,2013-02-16 23:27:00,
2013-02-16 18:32:00,10.5,3.9,30.15,North,357,0.0,1.0,74,0.00,,CLR,0.00,VWS V14.01,2013-02-16 23:32:00,
2013-02-16 18:37:00,10.3,4.0,30.15,North,7,1.0,1.0,75,0.00,,CLR,0.00,VWS V14.01,2013-02-16 23:37:00,
2013-02-16 18:42:00,9.8,4.1,30.15,North,7,2.0,2.0,77,0.00,,CLR,0.00,VWS V14.01,2013-02-16 23:42:00,
2013-02-16 18:47:00,8.9,3.2,30.16,North,7,0.0,1.0,77,0.00,,CLR,0.00,VWS V14.01,2013-02-16 23:47:00,
2013-02-16 18:52:00,8.1,3.0,30.16,North,7,0.0,0.0,79,0.00,,CLR,0.00,VWS V14.01,2013-02-16 23:52:00,
2013-02-16 18:57:00,7.4,2.3,30.16,North,7,1.0,1.0,79,0.00,,CLR,0.00,VWS V14.01,2013-02-16 23:57:00,
2013-02-16 19:02:00,7.1,2.0,30.16,North,7,1.0,1.0,79,0.00,,CLR,0.00,VWS V14.01,2013-02-17 00:02:00,
2013-02-16 19:07:00,6.7,1.6,30.16,North,7,0.0,1.0,79,0.00,,CLR,0.00,VWS V14.01,2013-02-17 00:07:00,
2013-02-16 19:12:00,6.4,1.6,30.16,North,7,0.0,1.0,80,0.00,,CLR,0.00,VWS V14.01,2013-02-17 00:12:00,
2013-02-16 19:17:00,5.1,0.3,30.16,North,7,0.0,1.0,80,0.00,,CLR,0.00,VWS V14.01,2013-02-17 00:17:00,
2013-02-16 19:22:00,4.3,0.0,30.16,North,7,1.0,1.0,82,0.00,,CLR,0.00,VWS V14.01,2013-02-17 00:22:00,
2013-02-16 19:27:00,4.2,0.4,30.16,North,7,0.0,0.0,84,0.00,,CLR,0.00,VWS V14.01,2013-02-17 00:27:00,
2013-02-16 19:32:00,4.1,0.3,30.16,North,7,1.0,2.0,84,0.00,,CLR,0.00,VWS V14.01,2013-02-17 00:32:00,
2013-02-16 19:37:00,3.8,0.1,30.16,North,7,0.0,1.0,84,0.00,,CLR,0.00,VWS V14.01,2013-02-17 00:37:00,
2013-02-16 19:42:00,3.8,0.1,30.17,NNE,15,0.0,1.0,84,0.00,,CLR,0.00,VWS V14.01,2013-02-17 00:42:00,
2013-02-16 19:47:00,3.6,0.1,30.17,NNE,16,1.0,1.0,85,0.00,,CLR,0.00,VWS V14.01,2013-02-17 00:47:00,
2013-02-16 19:52:00,3.1,-0.4,30.17,NNE,16,1.0,1.0,85,0.00,,CLR,0.00,VWS V14.01,2013-02-17 00:52:00,
2013-02-16 19:57:00,3.1,-0.6,30.17,NE,42,2.0,2.0,84,0.00,,CLR,0.00,VWS V14.01,2013-02-17 00:57:00,
2013-02-16 20:02:00,3.5,0.3,30.17,ENE,65,3.0,3.0,86,0.00,,CLR,0.00,VWS V14.01,2013-02-17 01:02:00,
2013-02-16 20:07:00,6.0,2.5,30.17,NE,56,3.0,4.0,85,0.00,,CLR,0.00,VWS V14.01,2013-02-17 01:07:00,
2013-02-16 20:13:00,7.3,3.0,30.17,NE,51,4.0,5.0,82,0.00,,CLR,0.00,VWS V14.01,2013-02-17 01:13:00,
2013-02-16 20:18:00,7.7,3.1,30.17,NE,46,4.0,4.0,81,0.00,,CLR,0.00,VWS V14.01,2013-02-17 01:18:00,
2013-02-16 20:23:00,7.5,2.6,30.17,NE,51,3.0,3.0,80,0.00,,CLR,0.00,VWS V14.01,2013-02-17 01:23:00,
2013-02-16 20:28:00,7.6,3.0,30.17,NE,55,2.0,3.0,81,0.00,,CLR,0.00,VWS V14.01,2013-02-17 01:28:00,
2013-02-16 20:33:00,7.8,3.2,30.17,NE,44,3.0,3.0,81,0.00,,CLR,0.00,VWS V14.01,2013-02-17 01:33:00,
2013-02-16 20:38:00,7.7,2.8,30.17,NE,38,3.0,3.0,80,0.00,,CLR,0.00,VWS V14.01,2013-02-17 01:38:00,
2013-02-16 20:43:00,7.5,2.6,30.17,NE,55,2.0,3.0,80,0.00,,CLR,0.00,VWS V14.01,2013-02-17 01:43:00,
2013-02-16 20:48:00,7.3,2.7,30.17,NE,55,2.0,2.0,81,0.00,,CLR,0.00,VWS V14.01,2013-02-17 01:48:00,
2013-02-16 20:53:00,6.7,1.9,30.17,NE,55,1.0,2.0,80,0.00,,CLR,0.00,VWS V14.01,2013-02-17 01:53:00,
2013-02-16 20:58:00,5.2,0.6,30.17,NE,55,0.0,1.0,81,0.00,,CLR,0.00,VWS V14.01,2013-02-17 01:58:00,
2013-02-16 21:03:00,3.6,-0.9,30.17,NE,55,0.0,1.0,81,0.00,,CLR,0.00,VWS V14.01,2013-02-17 02:03:00,
2013-02-16 21:08:00,1.9,-2.1,30.17,ENE,57,0.0,1.0,83,0.00,,CLR,0.00,VWS V14.01,2013-02-17 02:08:00,
2013-02-16 21:13:00,1.5,-2.0,30.17,ENE,57,0.0,0.0,85,0.00,,CLR,0.00,VWS V14.01,2013-02-17 02:13:00,
2013-02-16 21:18:00,0.8,-2.6,30.17,ENE,57,1.0,2.0,85,0.00,,CLR,0.00,VWS V14.01,2013-02-17 02:18:00,
2013-02-16 21:23:00,0.2,-3.0,30.17,ENE,57,1.0,1.0,86,0.00,,CLR,0.00,VWS V14.01,2013-02-17 02:23:00,
2013-02-16 21:28:00,-0.4,-3.3,30.17,ENE,57,1.0,2.0,87,0.00,,CLR,0.00,VWS V14.01,2013-02-17 02:28:00,
2013-02-16 21:33:00,-1.6,-5.0,30.18,ENE,57,2.0,2.0,85,0.00,,CLR,0.00,VWS V14.01,2013-02-17 02:33:00,
2013-02-16 21:38:00,-1.0,-3.7,30.18,ENE,57,1.0,2.0,88,0.00,,CLR,0.00,VWS V14.01,2013-02-17 02:38:00,
2013-02-16 21:43:00,-0.4,-3.3,30.18,East,80,3.0,3.0,87,0.00,,CLR,0.00,VWS V14.01,2013-02-17 02:43:00,
2013-02-16 21:48:00,-0.8,-4.0,30.18,East,99,2.0,2.0,86,0.00,,CLR,0.00,VWS V14.01,2013-02-17 02:48:00,
2013-02-16 21:53:00,-0.6,-3.3,30.18,East,99,2.0,2.0,88,0.00,,CLR,0.00,VWS V14.01,2013-02-17 02:53:00,
2013-02-16 21:58:00,-0.6,-3.5,30.18,East,99,1.0,2.0,87,0.00,,CLR,0.00,VWS V14.01,2013-02-17 02:58:00,
2013-02-16 22:03:00,-0.5,-3.4,30.18,East,99,1.0,2.0,87,0.00,,CLR,0.00,VWS V14.01,2013-02-17 03:03:00,
2013-02-16 22:08:00,-1.4,-4.8,30.18,East,99,2.0,2.0,85,0.00,,CLR,0.00,VWS V14.01,2013-02-17 03:08:00,
2013-02-16 22:13:00,-1.4,-4.6,30.18,East,100,2.0,2.0,86,0.00,,CLR,0.00,VWS V14.01,2013-02-17 03:13:00,
2013-02-16 22:18:00,-2.1,-5.2,30.18,East,100,1.0,1.0,86,0.00,,CLR,0.00,VWS V14.01,2013-02-17 03:18:00,
2013-02-16 22:23:00,-2.9,-6.3,30.18,East,100,2.0,2.0,85,0.00,,CLR,0.00,VWS V14.01,2013-02-17 03:23:00,
2013-02-16 22:28:00,-3.1,-6.2,30.18,East,100,2.0,2.0,86,0.00,,CLR,0.00,VWS V14.01,2013-02-17 03:28:00,
2013-02-16 22:33:00,-2.1,-4.8,30.18,East,100,1.0,2.0,88,0.00,,CLR,0.00,VWS V14.01,2013-02-17 03:33:00,
2013-02-16 22:38:00,-2.1,-5.2,30.18,East,100,1.0,2.0,86,0.00,,CLR,0.00,VWS V14.01,2013-02-17 03:38:00,
2013-02-16 22:43:00,-2.2,-5.3,30.18,East,100,1.0,2.0,86,0.00,,CLR,0.00,VWS V14.01,2013-02-17 03:43:00,
2013-02-16 22:48:00,-2.3,-5.4,30.18,East,100,2.0,2.0,86,0.00,,CLR,0.00,VWS V14.01,2013-02-17 03:48:00,
2013-02-16 22:53:00,-1.8,-4.7,30.18,East,100,1.0,2.0,87,0.00,,CLR,0.00,VWS V14.01,2013-02-17 03:53:00,
2013-02-16 22:59:00,-2.5,-5.9,30.18,East,100,0.0,1.0,85,0.00,,CLR,0.00,VWS V14.01,2013-02-17 03:59:00,
2013-02-16 23:04:00,-2.6,-6.0,30.18,East,100,2.0,2.0,85,0.00,,CLR,0.00,VWS V14.01,2013-02-17 04:04:00,
2013-02-16 23:09:00,-2.4,-5.6,30.18,East,100,2.0,2.0,86,0.00,,CLR,0.00,VWS V14.01,2013-02-17 04:09:00,
2013-02-16 23:14:00,-2.1,-5.2,30.18,East,100,2.0,2.0,86,0.00,,CLR,0.00,VWS V14.01,2013-02-17 04:14:00,
2013-02-16 23:19:00,-1.5,-4.4,30.18,East,100,2.0,2.0,87,0.00,,CLR,0.00,VWS V14.01,2013-02-17 04:19:00,
2013-02-16 23:24:00,-1.4,-4.6,30.18,East,100,2.0,2.0,86,0.00,,CLR,0.00,VWS V14.01,2013-02-17 04:24:00,
2013-02-16 23:29:00,-1.3,-4.5,30.18,East,100,2.0,2.0,86,0.00,,CLR,0.00,VWS V14.01,2013-02-17 04:29:00,
2013-02-16 23:34:00,-0.8,-4.0,30.18,East,100,1.0,2.0,86,0.00,,CLR,0.00,VWS V14.01,2013-02-17 04:34:00,
2013-02-16 23:39:00,-0.5,-3.7,30.18,East,100,2.0,2.0,86,0.00,,CLR,0.00,VWS V14.01,2013-02-17 04:39:00,
2013-02-16 23:44:00,-0.4,-3.6,30.17,East,100,1.0,2.0,86,0.00,,CLR,0.00,VWS V14.01,2013-02-17 04:44:00,
2013-02-16 23:49:00,0.2,-3.0,30.18,East,100,1.0,2.0,86,0.00,,CLR,0.00,VWS V14.01,2013-02-17 04:49:00,
2013-02-16 23:54:00,0.6,-2.3,30.18,East,101,1.0,1.0,87,0.00,,CLR,0.00,VWS V14.01,2013-02-17 04:54:00,
2013-02-16 23:59:00,0.6,-2.6,30.17,East,100,1.0,1.0,86,0.00,,CLR,0.00,VWS V14.01,2013-02-17 04:59:00,